Wind_Speed
8 11 12 14 13 11 13 14 18 13 20 24 18 20 17 18 22 22 17 15 13 13 15 18 21 22 24 26 24 20 16 12 13 14 15 17 20 23 27 31 33 34 32 32
7 11 12 12 11 15 14 14 13 16 18 23 15 14 4 8 13 14 13 14 12 13 16 17 19 20 22 24 27 24 18 15 10 12 14 18 19 22 24 25 27 30 32 35
4 10 11 10 11 14 13 12 23 22 24 8 15 5 12 9 15 14 12 11 11 13 15 18 20 20 21 22 22 24 21 14 9 8 10 15 19 23 24 26 28 31 33 34
6 14 10 9 9 16 10 21 23 20 15 6 12 7 11 11 13 16 12 12 12 13 15 17 18 20 21 22 21 21 22 19 12 13 12 13 14 16 20 26 29 29 31 34
10 12 10 10 12 17 14 19 18 20 15 10 3 4 7 13 16 23 18 16 15 15 16 16 16 17 18 20 19 18 17 20 20 19 14 11 12 15 22 24 23 25 31 30
14 10 9 14 12 15 24 22 6 9 9 2 6 4 10 9 14 21 21 16 16 17 17 16 17 17 17 17 17 16 17 16 16 17 16 14 13 11 13 17 26 25 28 31
9 13 10 11 16 13 20 17 6 4 2 4 6 11 8 14 16 16 20 20 17 17 18 18 20 19 18 16 15 15 16 15 16 16 17 14 11 10 11 11 11 10 13 19
11 8 13 18 16 16 9 9 3 4 3 8 22 7 7 15 13 15 18 19 17 19 23 25 25 24 22 19 16 15 14 15 15 16 16 15 14 12 11 10 9 13 18 17
9 5 16 10 16 20 8 2 9 6 10 9 8 11 15 15 13 16 17 15 17 31 29 27 24 24 24 22 19 17 16 19 20 19 18 15 12 10 10 11 12 11 11 15
10 13 9 15 20 8 7 9 3 3 4 5 6 13 11 14 18 20 21 20 26 34 31 29 26 25 25 25 23 22 21 25 31 29 22 18 14 12 11 10 12 15 16 17
16 5 15 18 11 17 16 9 3 7 7 3 5 6 10 23 15 29 30 27 31 33 31 30 29 26 25 26 26 26 30 31 32 29 25 21 19 18 17 16 15 14 14 16
10 11 14 24 19 17 12 9 9 5 3 10 14 20 9 11 14 34 23 27 32 35 36 34 32 29 25 27 29 30 33 34 31 26 26 26 28 26 24 26 26 25 26 22
17 7 10 6 6 6 13 14 15 14 20 20 8 13 17 27 36 29 36 29 30 34 37 35 33 29 28 27 30 33 35 36 31 26 27 27 26 25 26 26 25 23 22 22
22 16 15 17 20 24 33 33 27 22 19 22 34 43 38 35 32 33 25 28 26 34 39 37 31 29 29 29 31 35 38 36 31 28 27 26 24 23 23 23 22 22 23 24
22 24 22 26 27 27 30 26 24 26 33 29 44 38 35 34 31 26 31 34 32 39 38 35 35 34 34 35 36 37 37 32 32 29 28 26 26 25 24 24 24 25 27 27
25 23 26 34 31 19 26 38 34 27 23 28 32 33 27 22 24 29 22 32 33 34 34 37 39 44 37 37 37 36 34 32 31 30 29 26 24 24 25 25 26 27 29 30
30 28 26 25 23 23 27 12 9 20 25 26 25 27 28 30 35 27 34 43 38 34 34 36 38 40 36 35 35 33 34 32 29 27 27 26 25 25 25 26 27 29 31 31
31 28 23 27 26 5 7 13 22 18 12 21 22 28 31 32 27 36 45 47 41 37 34 34 37 38 36 33 35 32 28 27 26 28 27 26 27 27 27 28 30 31 31 31
20 29 23 10 18 30 31 11 14 22 30 26 25 27 27 27 41 34 39 39 38 33 37 35 35 35 31 31 30 27 25 25 26 25 25 26 26 28 29 30 31 31 31 30
13 17 27 15 9 6 12 23 26 30 26 15 21 24 34 47 45 43 43 42 37 36 36 35 35 32 30 29 26 24 24 24 24 24 25 26 28 30 30 31 31 32 32 31
14 16 23 30 19 22 23 22 26 13 19 30 36 39 44 38 42 44 42 40 38 37 35 33 30 28 26 24 23 22 23 23 24 25 27 29 29 29 30 30 31 32 33 33
20 13 17 14 11 14 22 19 28 33 38 36 43 38 43 45 41 42 41 39 38 34 31 29 25 23 22 21 21 21 22 23 25 27 28 28 28 29 30 31 32 34 35 36
25 30 22 18 21 34 30 34 43 37 48 43 40 47 43 41 43 43 41 37 34 31 27 24 21 20 19 19 20 21 23 26 27 27 26 26 28 30 31 32 33 34 35 35
26 28 34 31 36 34 42 45 43 29 42 39 39 39 41 43 42 40 37 33 29 25 22 20 19 19 19 20 22 23 25 25 25 25 26 28 29 30 30 30 30 29 29 30
35 34 38 45 39 43 28 42 31 47 39 38 39 41 41 41 38 34 30 26 23 20 19 18 18 19 20 23 23 23 23 24 25 27 28 28 27 27 26 25 25 25 25 27
36 45 35 45 37 37 41 38 47 38 37 39 38 39 39 36 32 27 23 21 19 18 18 19 20 22 22 21 22 23 25 26 25 25 24 24 22 21 21 21 22 24 26 27
Wind_Direction
26 18 18 10 8 358 351 343 329 305 306 315 329 326 320 288 299 308 307 303 300 305 317 327 331 338 344 348 1 353 345 314 284 273 254 237 236 240 239 244 249 253 254 250
11 348 358 0 5 2 352 326 316 319 319 310 326 349 0 311 338 318 315 306 298 306 316 324 330 337 342 348 350 356 349 357 320 281 258 255 254 254 254 254 255 257 255 255
16 347 347 349 3 346 359 325 324 323 332 355 325 345 338 345 349 342 331 317 302 304 316 323 330 337 341 347 347 351 360 356 351 293 270 263 260 258 262 262 259 260 261 260
348 342 340 347 347 344 352 335 324 332 337 324 329 298 297 326 331 343 338 334 321 308 314 320 327 331 337 341 348 354 357 359 344 331 297 297 279 276 274 269 259 257 259 261
339 333 334 343 335 342 337 340 328 325 330 334 286 298 286 304 318 337 333 333 331 317 311 313 320 325 328 333 340 341 351 350 356 350 351 318 304 269 276 277 276 276 262 266
345 342 337 333 337 343 341 349 347 289 323 287 200 336 278 273 320 333 336 337 332 324 314 310 313 317 319 324 329 335 339 346 343 345 351 343 337 307 274 278 278 271 279 267
352 322 333 332 340 347 342 0 354 351 298 247 266 307 261 310 323 330 330 338 332 328 324 317 314 309 309 312 318 326 330 334 333 332 330 334 317 307 298 277 253 242 243 250
335 328 328 324 329 338 358 32 40 305 326 296 294 248 317 311 319 337 332 337 341 337 328 322 312 303 300 301 302 309 318 319 322 323 318 315 317 304 301 306 297 296 271 265
338 297 311 329 323 326 315 325 315 263 285 270 256 278 284 298 314 322 336 330 330 332 330 324 316 301 293 293 294 297 302 308 309 307 308 303 302 308 320 323 303 298 324 321
321 306 317 319 320 319 325 315 312 268 301 299 271 297 314 311 307 322 322 317 322 330 332 329 321 305 292 287 289 293 300 306 304 297 285 283 282 283 285 296 318 320 304 307
330 303 313 318 314 307 307 307 301 286 260 270 310 262 287 315 315 339 336 322 319 324 331 328 324 314 294 286 284 286 293 301 303 292 279 267 271 272 278 286 294 303 317 323
312 297 289 316 284 291 295 274 263 270 282 269 289 283 309 325 311 335 334 328 322 324 327 324 320 315 299 282 279 282 288 296 300 288 283 273 264 262 267 272 279 289 294 302
312 295 307 306 282 302 310 307 303 278 272 264 265 263 294 315 321 322 321 318 318 321 321 319 316 310 301 289 281 280 282 288 296 285 282 285 283 276 278 282 283 285 297 307
300 277 258 264 281 290 293 294 285 272 265 257 251 274 292 305 301 306 316 318 319 321 317 315 311 310 304 297 286 280 281 285 292 284 280 279 278 276 280 285 284 293 304 311
294 282 285 286 288 293 293 295 293 271 267 256 290 276 313 315 303 309 315 314 307 315 312 310 308 305 302 300 290 281 283 283 285 283 279 275 279 284 290 290 292 300 306 307
283 284 290 294 303 296 290 304 301 274 268 273 300 297 319 302 289 295 307 326 315 314 311 309 309 305 299 301 300 293 285 278 278 278 278 282 282 284 288 290 295 300 303 304
280 280 288 290 303 301 297 304 308 313 293 303 294 306 300 288 291 288 310 318 315 314 314 311 308 309 300 304 301 290 286 281 284 280 277 281 284 287 288 290 295 298 300 301
259 273 278 286 302 244 297 269 291 297 305 305 291 280 283 285 292 303 310 309 312 314 309 309 308 306 302 303 298 292 286 282 280 281 284 286 287 290 291 296 299 299 300 300
251 249 260 255 268 282 301 296 282 305 306 303 288 279 274 282 318 307 305 315 316 313 310 303 304 304 301 295 289 284 281 280 281 283 285 288 290 293 297 299 301 303 305 306
260 257 245 254 259 265 282 292 298 299 292 292 309 274 291 309 316 316 315 315 309 308 307 303 302 298 291 287 283 280 280 283 286 288 288 290 293 297 300 303 305 307 308 308
274 265 248 258 251 271 269 281 295 290 288 301 304 313 309 316 315 315 316 313 309 308 305 301 297 293 288 285 283 283 285 288 289 290 292 294 299 303 304 306 307 306 304 305
275 260 262 263 236 260 263 274 297 301 303 309 313 311 312 315 315 314 312 310 307 305 301 297 293 290 287 287 286 286 288 290 292 293 298 305 306 305 305 306 306 306 305 304
253 263 274 265 270 280 277 303 310 304 303 312 311 313 313 314 315 314 314 312 308 304 300 296 294 291 290 289 290 293 295 295 299 305 306 305 305 305 305 305 304 304 304 305
274 277 266 275 292 279 288 295 300 298 316 316 314 313 313 314 314 314 312 308 305 302 299 296 293 292 293 293 295 296 299 304 305 304 304 304 305 304 305 307 309 311 311 311
279 282 285 290 294 293 285 305 297 313 312 316 312 312 313 313 313 311 308 304 301 298 295 294 294 295 296 297 300 304 304 304 304 304 306 308 309 310 312 314 315 316 316 315
276 284 274 289 291 291 304 295 305 309 310 310 312 313 313 313 312 310 307 303 299 298 297 297 298 298 302 305 305 305 305 305 308 310 311 312 313 314 315 315 315 316 317 317
Height
3142 3142 3140 3139 3138 3137 3135 3134 3132 3129 3125 3121 3116 3113 3113 3110 3108 3107 3104 3103 3103 3102 3100 3098 3094 3091 3088 3083 3079 3076 3071 3068 3067 3068 3069 3069 3070 3072 3074 3076 3077 3080 3082 3084
3143 3142 3141 3140 3138 3136 3135 3134 3131 3126 3122 3118 3113 3109 3109 3107 3106 3104 3102 3101 3099 3099 3097 3095 3092 3089 3085 3082 3077 3074 3069 3065 3065 3066 3067 3067 3069 3069 3070 3071 3073 3073 3075 3077
3143 3143 3140 3138 3137 3135 3133 3132 3128 3125 3118 3116 3113 3109 3108 3107 3105 3103 3101 3099 3097 3096 3094 3093 3090 3087 3085 3081 3077 3073 3070 3066 3064 3063 3063 3063 3063 3063 3064 3066 3067 3067 3069 3070
3144 3142 3140 3139 3138 3136 3133 3130 3126 3123 3120 3119 3117 3114 3107 3106 3105 3102 3100 3097 3096 3095 3093 3092 3089 3086 3082 3079 3075 3071 3068 3067 3064 3062 3061 3061 3060 3059 3059 3060 3061 3062 3062 3063
3145 3141 3139 3139 3138 3136 3133 3128 3123 3121 3120 3119 3115 3114 3105 3103 3101 3099 3098 3097 3095 3094 3093 3091 3088 3086 3083 3079 3076 3073 3068 3065 3063 3059 3057 3056 3056 3055 3055 3055 3056 3054 3056 3056
3143 3141 3140 3138 3137 3134 3130 3125 3120 3119 3120 3119 3114 3115 3105 3102 3102 3099 3097 3096 3095 3093 3091 3089 3087 3084 3082 3079 3076 3073 3068 3065 3063 3061 3058 3055 3054 3053 3052 3052 3051 3051 3050 3049
3143 3140 3139 3137 3135 3133 3131 3126 3122 3122 3120 3118 3114 3114 3103 3103 3102 3100 3097 3096 3094 3092 3090 3088 3086 3083 3080 3078 3075 3072 3068 3064 3062 3060 3058 3056 3054 3052 3052 3051 3049 3048 3046 3044
3144 3140 3139 3137 3136 3133 3129 3129 3129 3130 3123 3117 3114 3109 3103 3102 3101 3100 3097 3095 3094 3091 3089 3086 3083 3080 3078 3075 3072 3070 3067 3065 3062 3059 3058 3055 3053 3052 3050 3049 3047 3046 3044 3042
3143 3141 3139 3136 3134 3134 3130 3129 3129 3126 3120 3118 3108 3104 3102 3100 3100 3098 3096 3093 3091 3089 3086 3082 3079 3076 3074 3072 3069 3067 3065 3063 3060 3058 3056 3054 3051 3049 3048 3046 3044 3043 3041 3038
3145 3140 3136 3134 3132 3129 3129 3129 3128 3127 3123 3116 3104 3102 3101 3098 3097 3097 3094 3091 3087 3085 3081 3077 3074 3072 3070 3068 3066 3064 3061 3059 3057 3055 3052 3050 3048 3046 3045 3043 3041 3039 3037 3035
3143 3142 3139 3133 3131 3128 3128 3127 3127 3127 3124 3121 3112 3102 3098 3098 3096 3092 3089 3087 3084 3080 3077 3073 3069 3066 3064 3063 3061 3059 3056 3053 3050 3048 3046 3045 3043 3041 3039 3038 3036 3035 3034 3032
3141 3138 3134 3132 3128 3127 3125 3126 3126 3126 3123 3119 3116 3097 3095 3094 3093 3089 3085 3080 3074 3072 3070 3066 3063 3060 3057 3055 3053 3052 3049 3046 3044 3042 3040 3038 3037 3035 3034 3033 3031 3029 3028 3027
3137 3135 3132 3127 3127 3127 3124 3123 3122 3122 3120 3113 3116 3096 3092 3091 3091 3085 3080 3076 3072 3067 3063 3060 3056 3054 3051 3049 3046 3045 3042 3039 3037 3035 3033 3031 3031 3030 3029 3027 3026 3024 3022 3021
3134 3130 3130 3128 3124 3124 3119 3116 3117 3118 3112 3105 3099 3088 3088 3088 3087 3081 3079 3076 3071 3064 3058 3054 3050 3047 3045 3043 3040 3036 3033 3031 3031 3028 3027 3025 3024 3023 3022 3021 3019 3018 3017 3015
3131 3124 3122 3119 3117 3116 3111 3106 3104 3103 3100 3101 3084 3088 3082 3084 3079 3074 3071 3068 3065 3060 3054 3049 3046 3041 3037 3035 3031 3027 3025 3025 3023 3021 3019 3018 3017 3016 3015 3014 3012 3011 3010 3009
3123 3120 3116 3112 3111 3108 3101 3095 3092 3090 3090 3088 3083 3079 3080 3076 3072 3069 3066 3062 3057 3054 3048 3044 3040 3035 3029 3027 3023 3020 3018 3016 3015 3014 3013 3012 3011 3009 3008 3007 3006 3005 3003 3001
3118 3117 3116 3106 3107 3103 3096 3087 3087 3085 3085 3084 3080 3079 3075 3071 3067 3062 3059 3055 3050 3046 3042 3036 3032 3027 3022 3019 3016 3013 3011 3010 3010 3008 3007 3006 3004 3003 3001 3000 2999 2997 2996 2994
3114 3112 3112 3106 3106 3099 3090 3087 3085 3082 3080 3080 3076 3070 3065 3061 3058 3054 3050 3047 3042 3038 3034 3028 3024 3019 3015 3011 3008 3006 3004 3003 3002 3001 3000 2999 2997 2996 2994 2992 2990 2988 2986 2984
3108 3107 3106 3104 3099 3087 3081 3081 3081 3078 3074 3072 3067 3064 3060 3055 3050 3048 3044 3038 3034 3029 3025 3020 3015 3012 3007 3003 3000 2998 2997 2996 2995 2994 2993 2991 2990 2988 2986 2984 2982 2979 2976 2973
3102 3102 3102 3100 3096 3087 3078 3076 3074 3071 3067 3065 3063 3057 3052 3047 3040 3037 3033 3029 3024 3019 3015 3010 3006 3003 2999 2995 2992 2991 2990 2989 2989 2987 2986 2984 2982 2980 2978 2975 2972 2969 2966 2964
3096 3095 3093 3091 3088 3078 3071 3069 3067 3067 3064 3057 3054 3049 3045 3039 3035 3028 3022 3018 3013 3008 3004 3001 2997 2994 2991 2989 2987 2985 2984 2983 2982 2981 2979 2977 2974 2972 2970 2967 2964 2961 2959 2955
3089 3087 3081 3081 3079 3072 3064 3063 3064 3060 3055 3050 3046 3039 3035 3029 3024 3019 3013 3008 3003 2999 2994 2991 2988 2986 2984 2983 2982 2980 2979 2977 2976 2974 2972 2969 2967 2964 2962 2959 2956 2953 2949 2946
3081 3078 3078 3075 3068 3064 3059 3054 3052 3049 3045 3040 3036 3031 3024 3019 3014 3009 3003 2999 2994 2991 2987 2985 2983 2980 2980 2979 2977 2975 2973 2972 2969 2966 2964 2962 2960 2957 2954 2951 2948 2945 2941 2937
3072 3072 3067 3064 3058 3056 3052 3049 3044 3040 3035 3030 3025 3021 3016 3010 3005 3000 2996 2992 2988 2985 2982 2980 2978 2976 2975 2973 2972 2970 2967 2965 2962 2960 2958 2955 2952 2949 2946 2943 2939 2936 2932 2929
3062 3063 3058 3051 3050 3046 3042 3040 3036 3029 3024 3018 3015 3012 3007 3002 2997 2993 2989 2986 2983 2980 2977 2975 2973 2971 2970 2968 2966 2963 2961 2958 2956 2953 2950 2947 2944 2941 2938 2935 2932 2929 2926 2922
3053 3052 3049 3042 3042 3039 3034 3031 3027 3023 3017 3013 3008 3004 2999 2994 2989 2985 2982 2980 2978 2976 2973 2971 2969 2966 2964 2962 2960 2958 2955 2952 2949 2946 2943 2940 2938 2935 2932 2930 2927 2923 2919 2915